Tracking 19720 objects as of 26-Jun-2019
HD Live streaming from Space Station
objects crossing your sky now

RADUGA 20

Track RADUGA 20 now!
RADUGA 20 is classified as:


NORAD ID: 17611
Int'l Code: 1987-028A
Perigee: 36,930.9 km
Apogee: 37,162.4 km
Inclination: 16.5 °
Period: 1,500.6 minutes
Semi major axis: 43417 km
RCS: 2.0634 m2 (large)
Launch date: March 19, 1987
Source: Commonwealth of Independent States (former USSR) (CIS)
Launch site: TYURATAM MISSILE AND SPACE COMPLEX (TTMTR)
aabbcc
Your satellite tracking list
Your tracking list is empty




NASA's NSSDC Master Catalog

Two Line Element Set (TLE):
1 17611U 87028A   19176.60113122 -.00000162 +00000-0 +00000-0 0  9991
2 17611 016.5239 348.9786 0026655 102.5480 189.3399 00.95962989113850
Source of the keplerian elements: AFSPC